Location: Gro� Glienicke
(52.4675°N, 13.1079°E)
Time: 08:42:10
(UTC+00:00)

Cosmos 773 Rocket - Pass Details

Date: 06 July 2020
Orbit: 746 x 776 km, 74.1° (Epoch: 05 August)

Event Time Altitude Azimuth Distance (km) Brightness Sun altitude
Rises 20:12:25 0° 188° (S) 3,245 6.8 -5.3°
Reaches altitude 10° 20:14:50 10° 184° (S) 2,322 6.1 -5.6°
Maximum altitude 20:19:58 54° 108° (ESE) 945 4.2 -6.1°
Drops below altitude 10° 20:25:06 10° 33° (NNE) 2,332 6.8 -6.6°
Sets 20:27:32 0° 29° (NNE) 3,260 7.6 -6.8°
